Vertical_Velocity
-1 -1 -1 -2 -7 -4 5 1 3 1 -2 -0 -0 -3 -2 -3 2 -0 1 0 -1 1 1 -1 0 1 1 -1 -1 -0 1 1 -0 0 0 -0 -1 0 0 -0 -0 -0 0 0 -0 0 1 -1 -1
-1 -1 -1 -4 -7 -3 10 4 5 -2 -0 2 -0 -0 -2 -3 -2 1 -1 1 -1 -1 1 1 -1 0 1 1 0 -0 0 0 1 0 0 0 -1 -1 -0 -0 -1 -1 -1 -0 -0 0 -0 -0 -0
-1 -1 -2 -4 -1 6 1 -1 1 -1 -3 -0 -1 -0 1 2 -1 -1 -1 1 0 0 1 1 -0 1 0 0 1 -0 0 -0 0 0 1 -0 -1 -1 -1 -1 -0 -1 -1 -1 -1 -1 -1 -0 -0
-3 -0 -6 -7 2 5 5 -2 0 0 -5 -0 3 0 0 -1 1 -2 1 -4 2 0 1 0 -1 -0 1 0 1 1 -1 0 0 1 0 -1 -1 0 -0 -1 -1 -1 -1 -1 -1 -1 -2 -0 -0
-3 0 -6 1 5 2 2 -1 -2 -0 -4 -3 1 2 2 -2 0 0 1 2 -1 -1 0 -0 -2 -1 -0 -0 1 0 1 -0 -0 1 -0 -0 -1 -1 -0 0 -1 -0 -0 -1 -1 -1 -0 0 -0
-3 -3 -5 -0 0 4 7 -3 -3 -1 -2 -1 -2 7 -1 -2 1 0 -1 1 1 -1 1 1 -0 1 0 0 -1 1 1 1 -1 1 0 -0 -1 -1 0 -1 -0 -0 -0 -1 0 -1 -1 0 -0
-0 -7 -1 -1 3 2 1 -1 -7 2 1 -4 -3 -2 1 1 5 3 0 1 1 1 0 1 -0 1 -0 1 -1 1 1 0 0 -0 0 0 0 -0 -0 -0 -0 -0 -0 0 0 -1 -1 -0 -0
-3 -6 -0 0 1 1 -1 -5 -2 -1 1 4 -11 -9 1 5 1 1 1 -1 1 1 -0 -0 -0 0 -0 2 0 0 -0 1 2 0 -0 -0 0 1 0 -1 -0 -1 -0 0 0 -1 -2 -2 -1
-5 -4 0 -3 -2 -2 -2 5 0 -3 4 -5 0 -6 0 5 3 1 1 1 0 1 2 2 2 -0 0 1 -1 -1 0 0 1 1 1 -0 0 0 0 0 -0 0 -1 -0 -0 -0 -1 -2 -2
-1 4 -6 0 -1 -3 0 -0 -3 -6 -3 8 -2 1 -7 2 2 3 1 5 4 2 1 -0 -1 1 1 -0 -1 -0 -0 -0 -0 1 2 -0 -0 0 0 1 -0 -0 -0 -0 -1 -0 0 -1 -2
5 -5 -9 6 -4 -1 7 3 -8 3 3 7 -3 -1 2 2 3 4 2 2 7 1 -2 3 -1 3 2 -1 -0 0 -0 -1 -1 0 1 3 -0 0 1 1 0 -1 -0 1 1 -0 0 -0 -3
-6 -7 -8 7 -2 -0 -7 -4 5 -13 19 13 6 12 1 1 4 5 4 1 2 4 1 6 2 2 3 1 -0 -0 -1 -1 -0 0 1 1 1 0 1 1 -1 1 -1 -0 -0 -0 -1 1 -0
-10 -2 -2 -4 1 -4 -7 -2 -11 0 15 -7 -6 -4 7 -1 1 1 4 -1 3 1 0 1 1 0 3 1 0 -1 -0 0 1 1 1 1 1 0 1 -0 -1 1 0 -2 -1 -0 -1 0 -0
-9 -5 -4 4 -3 -10 -25 4 -20 21 10 -14 -10 1 2 3 1 1 2 4 5 7 1 3 1 2 1 1 1 1 -0 1 1 1 2 1 1 -0 0 1 -0 0 1 -1 -2 -1 -1 -0 -3
-7 -7 2 10 1 -9 -19 -7 13 -10 -11 -7 -4 -0 2 2 4 1 8 4 4 7 3 4 1 1 2 -0 1 1 1 1 1 1 1 1 1 0 -0 -0 1 1 0 0 1 -1 -0 1 -2
-4 -3 -8 -4 5 -6 -11 -27 7 -4 -15 -10 -7 -10 -2 6 5 -3 4 4 3 -0 2 7 5 0 2 1 2 1 0 1 1 2 1 1 1 2 -1 0 0 1 0 1 2 -1 -1 -1 -3
-2 -6 -5 -2 3 -14 -14 -5 12 -7 -13 -3 -6 -9 -6 7 4 -3 4 4 4 7 -0 6 3 3 -1 1 3 2 2 1 1 2 1 1 2 2 1 1 -1 0 0 -1 -0 -1 -2 -3 -2
-6 -8 -1 -9 1 -10 8 -10 -3 -6 -19 -2 -4 -0 -4 3 9 -0 1 9 1 1 0 3 5 2 0 0 4 4 2 -0 0 2 2 2 1 1 2 1 1 -0 -0 -0 1 -1 0 -1 -2
-1 -4 -11 13 -9 -23 -3 -8 15 -9 -9 0 1 -2 -6 -6 17 -1 -6 4 1 -4 -1 2 6 -1 4 8 8 2 0 1 0 0 1 1 1 1 0 1 0 -0 -1 -0 1 -1 1 -0 -4
4 -10 0 23 -4 -14 9 12 -6 -18 1 -5 -6 -10 3 3 7 5 4 4 6 5 5 11 6 5 4 4 -1 -2 1 1 -0 -1 0 1 2 1 0 1 -1 2 -1 3 -2 -2 -1 -0 -1
10 -8 3 -20 7 6 -8 -4 15 2 -8 -1 0 1 -6 -6 3 -1 5 6 3 -2 6 20 3 5 3 1 3 6 3 0 -2 -2 -0 0 1 1 1 1 2 1 -1 1 -0 -3 -1 -1 -2
2 1 -1 -4 -9 -11 -6 -61 47 -6 -4 -8 0 2 2 8 2 -5 4 -1 5 3 6 29 5 10 1 4 3 1 -4 0 2 -1 -0 1 0 1 1 2 -7 0 1 1 0 -1 -0 -1 -1
4 -4 1 0 1 -11 8 -20 22 -14 7 -6 -5 1 1 1 6 -5 1 6 5 8 12 26 6 7 2 2 0 -1 4 3 -1 -3 -1 -0 0 -1 2 4 -3 0 2 -2 -0 -0 1 -1 -1
-5 -7 3 8 5 8 0 -3 21 -6 -1 6 -3 -3 2 -2 -2 0 5 -4 -2 4 7 16 -5 2 34 -10 0 0 0 -1 2 1 0 0 -1 -0 0 4 -1 0 1 -1 -1 -0 -0 -1 -1
2 -1 -11 -8 -3 1 -3 -4 -3 2 -2 -1 4 -2 -4 -3 -0 -3 -7 -5 -3 6 10 4 67 -1 -10 2 -4 2 0 1 -1 -1 1 2 -0 0 -2 1 -1 2 -0 -1 -1 -1 -0 -1 -1
-1 -2 8 -13 -9 -3 13 -2 -5 0 -0 2 -0 2 -2 -1 5 -3 3 1 3 15 12 -5 8 3 0 2 14 1 2 1 3 -0 -2 3 2 2 3 -1 1 3 -2 0 -1 -1 -1 -1 -1
2 2 -2 -10 8 -1 -4 2 12 -4 6 -1 -3 2 -3 -1 6 9 -2 -0 2 4 -8 35 5 1 -3 -0 2 14 5 3 3 -0 -5 4 5 -0 2 1 2 -6 -3 0 -2 -2 -1 -1 -1
-5 -1 -3 2 -12 -8 1 0 -6 2 5 9 -0 0 -1 -2 -1 1 -2 -4 -6 -6 79 2 5 -2 4 -2 1 26 2 4 -4 2 1 3 3 3 1 1 -0 -4 -0 -0 -3 -1 -0 -1 -1
0 -0 1 0 -0 -6 -13 8 -4 -10 -8 2 -1 1 1 2 -0 0 -5 -2 -8 31 -8 7 -2 3 2 3 2 3 6 1 -0 -4 -0 -5 5 3 2 4 -7 -2 -1 -0 -1 -1 -2 -1 0
-1 -2 2 1 -2 5 -3 6 7 10 13 -0 -1 -1 -6 -2 2 -3 -6 -5 12 61 -13 96 -3 2 4 0 -2 -10 8 1 3 3 -4 4 1 2 -0 -5 -3 1 -1 -2 1 -2 -0 -0 -1
Height
5855 5855 5856 5857 5857 5854 5861 5866 5868 5869 5866 5867 5869 5871 5875 5876 5879 5881 5879 5879 5880 5880 5880 5880 5880 5881 5881 5881 5882 5883 5883 5884 5884 5884 5884 5884 5884 5884 5883 5882 5881 5880 5880 5880 5879 5879 5878 5878 5877
5849 5849 5850 5850 5850 5850 5856 5860 5861 5860 5860 5860 5861 5864 5867 5871 5874 5875 5876 5876 5877 5877 5877 5878 5878 5878 5879 5880 5880 5881 5882 5882 5882 5883 5883 5883 5883 5882 5882 5881 5881 5880 5879 5879 5879 5878 5878 5877 5877
5843 5843 5844 5843 5844 5846 5848 5852 5852 5852 5851 5852 5854 5856 5858 5864 5866 5869 5871 5872 5873 5874 5874 5874 5875 5876 5877 5877 5878 5879 5880 5880 5881 5881 5882 5882 5881 5881 5881 5880 5880 5879 5878 5878 5878 5877 5876 5876 5875
5837 5838 5838 5837 5838 5840 5840 5841 5842 5844 5843 5843 5844 5847 5849 5854 5858 5861 5864 5867 5868 5869 5870 5871 5872 5873 5874 5875 5876 5877 5878 5878 5879 5880 5880 5880 5880 5880 5880 5879 5879 5878 5877 5877 5876 5875 5874 5874 5872
5829 5830 5830 5831 5832 5831 5830 5831 5833 5835 5835 5834 5835 5838 5841 5845 5848 5852 5856 5860 5863 5864 5866 5868 5869 5869 5871 5872 5873 5874 5875 5876 5877 5877 5878 5878 5878 5878 5878 5878 5877 5876 5876 5875 5874 5873 5872 5871 5870
5821 5821 5822 5822 5822 5821 5821 5821 5822 5824 5827 5827 5827 5829 5832 5836 5840 5843 5847 5851 5855 5858 5860 5863 5864 5865 5866 5868 5870 5870 5872 5873 5874 5875 5875 5876 5876 5876 5876 5876 5875 5874 5873 5873 5872 5871 5870 5869 5868
5810 5809 5811 5810 5810 5809 5810 5807 5810 5812 5815 5817 5818 5818 5822 5826 5831 5834 5838 5842 5846 5850 5854 5857 5859 5861 5862 5864 5866 5867 5868 5870 5871 5872 5873 5874 5874 5874 5874 5874 5873 5872 5872 5871 5870 5869 5868 5867 5865
5799 5797 5798 5796 5795 5796 5795 5793 5795 5798 5801 5803 5807 5809 5810 5814 5819 5824 5828 5833 5837 5842 5846 5849 5853 5855 5857 5859 5861 5862 5864 5865 5867 5868 5870 5871 5871 5872 5872 5871 5871 5870 5869 5869 5868 5867 5866 5865 5863
5788 5786 5785 5783 5781 5781 5780 5781 5779 5782 5785 5787 5789 5797 5799 5801 5806 5812 5816 5822 5827 5832 5837 5841 5845 5848 5851 5853 5855 5857 5859 5861 5863 5864 5865 5867 5868 5869 5869 5868 5868 5867 5867 5866 5866 5865 5864 5862 5861
5778 5775 5771 5769 5765 5765 5766 5764 5763 5764 5767 5772 5773 5778 5786 5789 5792 5798 5804 5810 5817 5822 5828 5832 5836 5841 5844 5846 5848 5851 5854 5856 5858 5860 5861 5863 5864 5865 5866 5865 5865 5864 5864 5864 5863 5862 5861 5859 5857
5766 5760 5754 5750 5745 5744 5745 5744 5742 5746 5753 5755 5757 5759 5767 5773 5777 5783 5790 5797 5804 5810 5815 5821 5827 5832 5836 5840 5842 5845 5848 5851 5853 5855 5857 5858 5859 5861 5862 5862 5861 5861 5861 5860 5860 5859 5858 5856 5854
5753 5743 5735 5728 5722 5720 5718 5719 5721 5720 5735 5735 5736 5738 5745 5755 5761 5767 5775 5782 5791 5798 5805 5810 5817 5824 5828 5832 5835 5838 5841 5845 5847 5850 5852 5854 5855 5856 5857 5857 5858 5857 5857 5857 5856 5855 5854 5852 5850
5736 5728 5721 5716 5712 5707 5704 5707 5701 5708 5712 5703 5710 5715 5725 5733 5743 5750 5758 5768 5776 5785 5792 5799 5806 5814 5819 5824 5828 5831 5835 5838 5841 5844 5847 5849 5850 5851 5853 5853 5853 5853 5853 5853 5853 5852 5851 5849 5846
5723 5718 5714 5709 5703 5698 5696 5700 5687 5700 5682 5683 5687 5693 5700 5710 5722 5731 5742 5752 5763 5771 5780 5788 5795 5803 5810 5815 5820 5824 5828 5832 5835 5838 5841 5843 5845 5846 5848 5849 5849 5850 5849 5849 5848 5848 5847 5844 5842
5714 5711 5706 5701 5694 5689 5686 5691 5682 5675 5669 5671 5672 5673 5680 5689 5700 5712 5726 5736 5746 5757 5767 5777 5784 5793 5799 5806 5812 5817 5821 5824 5828 5831 5835 5837 5839 5841 5842 5844 5844 5845 5845 5845 5844 5843 5842 5840 5838
5705 5702 5698 5692 5685 5679 5677 5680 5671 5662 5658 5655 5654 5652 5655 5669 5679 5691 5706 5718 5730 5742 5754 5764 5772 5782 5789 5797 5803 5809 5813 5817 5821 5824 5828 5831 5834 5835 5837 5839 5840 5840 5841 5840 5840 5838 5837 5835 5833
5696 5691 5688 5684 5673 5669 5665 5666 5660 5650 5644 5637 5633 5635 5638 5649 5661 5674 5688 5702 5715 5729 5741 5751 5761 5770 5779 5787 5794 5800 5805 5810 5814 5817 5821 5825 5827 5830 5831 5833 5835 5835 5836 5836 5834 5833 5832 5830 5828
5686 5682 5679 5671 5666 5661 5656 5651 5647 5638 5626 5619 5616 5615 5622 5631 5647 5660 5673 5685 5699 5714 5728 5740 5749 5759 5768 5777 5785 5792 5797 5802 5806 5810 5814 5818 5821 5824 5826 5828 5829 5830 5830 5830 5829 5828 5827 5825 5823
5678 5673 5669 5663 5654 5653 5647 5641 5637 5625 5615 5606 5600 5600 5607 5619 5634 5645 5660 5673 5685 5701 5715 5728 5738 5749 5759 5769 5777 5783 5789 5794 5799 5803 5808 5812 5815 5818 5821 5822 5824 5825 5825 5825 5823 5823 5821 5819 5818
5670 5664 5661 5658 5648 5643 5639 5634 5626 5618 5607 5598 5593 5593 5602 5610 5619 5632 5648 5664 5675 5689 5705 5717 5728 5739 5750 5759 5767 5774 5781 5787 5792 5797 5802 5805 5809 5812 5815 5816 5818 5819 5820 5819 5818 5817 5816 5814 5812
5662 5655 5652 5646 5641 5636 5629 5628 5621 5610 5602 5596 5594 5595 5596 5605 5613 5623 5637 5653 5665 5680 5695 5709 5720 5731 5741 5750 5759 5768 5775 5780 5785 5790 5795 5799 5802 5805 5808 5810 5812 5813 5814 5813 5812 5811 5809 5807 5805
5655 5647 5642 5638 5633 5629 5620 5615 5615 5605 5598 5593 5591 5591 5594 5600 5609 5618 5629 5643 5659 5673 5685 5703 5710 5721 5731 5742 5751 5759 5766 5773 5778 5784 5789 5793 5796 5799 5802 5803 5805 5807 5807 5806 5805 5804 5802 5801 5798
5646 5640 5636 5631 5626 5622 5616 5609 5606 5599 5595 5590 5587 5586 5590 5595 5603 5614 5624 5637 5651 5664 5677 5694 5702 5713 5724 5735 5744 5752 5760 5766 5771 5777 5783 5787 5789 5792 5795 5797 5799 5800 5800 5800 5799 5797 5795 5794 5791
5638 5633 5630 5625 5621 5616 5610 5604 5600 5593 5588 5584 5580 5581 5582 5590 5597 5607 5616 5627 5642 5655 5669 5683 5694 5705 5716 5725 5736 5745 5752 5760 5765 5770 5776 5780 5783 5786 5788 5790 5792 5792 5793 5792 5792 5790 5788 5786 5783
5633 5628 5623 5618 5613 5608 5604 5598 5595 5588 5580 5576 5575 5574 5575 5579 5589 5598 5609 5622 5636 5649 5662 5675 5683 5697 5708 5717 5728 5738 5745 5752 5757 5761 5768 5774 5777 5779 5782 5783 5785 5785 5786 5785 5784 5782 5779 5777 5774
5630 5625 5620 5612 5607 5602 5601 5596 5592 5582 5573 5570 5568 5566 5567 5570 5580 5591 5602 5616 5629 5643 5656 5669 5680 5691 5701 5709 5721 5730 5737 5743 5748 5753 5760 5767 5771 5773 5774 5776 5777 5777 5778 5777 5775 5773 5771 5768 5765
5627 5622 5618 5609 5604 5597 5593 5590 5586 5577 5571 5565 5561 5559 5559 5563 5573 5584 5593 5606 5623 5637 5652 5663 5674 5684 5695 5705 5713 5719 5727 5734 5742 5746 5752 5760 5764 5766 5767 5769 5769 5770 5770 5769 5767 5765 5762 5759 5756
5623 5619 5614 5609 5601 5591 5586 5584 5576 5571 5566 5560 5554 5551 5554 5557 5564 5575 5587 5602 5621 5633 5645 5658 5668 5680 5689 5697 5706 5712 5722 5728 5734 5739 5746 5751 5757 5759 5760 5761 5761 5763 5762 5760 5758 5755 5752 5749 5745
5620 5616 5611 5605 5603 5594 5583 5581 5574 5566 5559 5554 5549 5549 5550 5555 5563 5574 5583 5598 5617 5633 5640 5654 5665 5675 5684 5691 5700 5708 5715 5720 5726 5735 5741 5745 5749 5752 5753 5753 5754 5755 5753 5751 5748 5746 5742 5738 5735
5616 5612 5608 5603 5600 5594 5587 5580 5572 5564 5554 5550 5549 5550 5552 5557 5564 5571 5584 5594 5605 5617 5641 5644 5659 5671 5681 5688 5699 5707 5710 5718 5724 5729 5735 5741 5743 5744 5746 5747 5747 5746 5744 5741 5739 5735 5731 5728 5724